Wind_Speed
14 14 14 14 13 12 10 8 7 6 6 7 7 7 7 7 7 8 9 9 9 8 7 7 7 7 7 7 7 6 5 4 4 3 3 3 3 2 2 2 2 3 3
14 14 14 14 13 12 10 9 7 6 6 6 6 7 8 7 8 8 8 9 9 8 8 8 8 8 8 8 7 7 6 5 5 5 5 4 4 4 4 4 4 4 5
14 14 14 14 13 11 10 9 6 5 6 6 6 7 8 7 8 8 9 9 9 9 9 9 8 8 8 8 8 8 8 7 7 6 6 6 6 6 6 6 6 6 6
14 14 14 13 13 12 10 8 4 4 5 5 6 7 7 7 8 9 8 8 9 10 10 10 10 9 9 9 9 9 9 9 8 8 8 8 8 8 8 8 8 8 8
13 14 13 12 11 10 9 7 4 4 5 5 6 7 7 7 7 8 8 8 9 10 11 10 10 10 10 10 10 10 10 10 9 9 9 10 10 10 10 10 10 11 11
13 13 13 11 10 9 8 5 2 2 3 4 5 6 6 6 6 7 8 8 8 9 10 11 11 10 10 10 11 11 11 11 11 11 11 12 12 13 13 13 13 14 14
13 13 12 11 10 8 7 4 2 2 2 4 5 5 6 6 7 7 7 8 9 9 10 11 11 11 11 11 12 12 12 12 13 13 13 14 14 14 15 15 16 16 16
12 11 11 11 9 8 6 4 3 3 3 4 5 5 5 5 6 7 7 9 9 9 9 11 12 12 12 12 13 13 14 14 14 15 16 16 16 17 17 17 18 18 19
10 11 11 10 8 7 5 4 4 4 3 4 4 4 4 5 5 6 7 8 10 10 11 12 13 13 12 13 14 14 15 16 16 17 17 18 19 20 20 20 20 21 22
9 9 10 9 7 5 4 4 5 4 4 4 4 4 5 5 6 6 7 7 8 10 11 12 13 13 13 13 14 14 15 17 17 18 19 19 20 21 22 22 23 24 24
9 9 9 8 7 5 4 5 5 4 4 3 4 5 6 7 7 8 8 9 9 10 11 13 13 14 15 15 16 16 17 17 18 19 20 20 21 21 22 22 24 24 26
9 9 9 8 7 6 6 6 5 5 5 5 5 6 7 8 9 10 10 10 10 11 12 13 14 14 15 16 16 17 18 18 19 20 20 21 22 22 22 24 24 25 25
9 9 9 8 8 7 7 7 6 6 6 6 7 8 8 9 10 11 11 12 12 12 12 13 14 15 16 17 17 17 18 19 20 20 21 21 22 23 23 25 25 25 26
10 10 9 8 8 9 8 8 8 8 8 8 9 9 10 11 12 12 12 13 13 12 13 15 15 16 17 18 18 18 19 20 20 21 22 22 23 24 24 25 26 27 28
11 11 10 10 10 10 10 9 9 9 9 10 10 11 11 12 12 12 13 13 13 14 15 16 17 18 18 18 19 19 19 20 21 22 22 23 24 24 25 26 27 27 28
12 12 12 12 11 11 11 10 10 10 10 10 11 11 11 12 12 13 13 14 14 15 16 17 18 18 18 18 19 20 21 21 22 23 24 25 25 26 27 28 28 28 28
14 14 14 14 13 13 12 11 11 12 12 12 13 12 12 12 13 13 14 14 15 16 17 17 18 19 19 19 20 21 22 23 23 24 25 26 27 27 28 28 28 29 29
15 15 15 14 14 14 14 13 14 14 14 14 14 14 14 14 15 15 15 16 16 17 18 18 19 20 21 21 22 23 23 24 25 25 26 26 27 28 28 29 30 30 30
16 15 15 15 15 15 15 16 16 16 16 16 15 15 15 15 15 16 17 17 18 18 19 19 20 21 22 23 24 24 24 25 26 27 27 27 28 29 29 30 30 30 31
18 17 17 16 16 16 17 17 17 17 18 18 18 18 18 17 18 18 18 19 19 20 20 21 22 22 23 23 25 26 27 27 28 28 28 29 30 30 30 31 31 31 31
20 19 19 18 18 18 18 18 19 19 19 19 20 20 19 20 20 20 20 21 22 22 23 23 24 24 24 25 25 27 28 28 29 29 30 31 31 31 31 32 32 32 32
22 21 21 20 20 20 20 20 20 20 21 21 21 22 21 21 22 22 23 23 23 24 24 25 26 26 27 26 27 28 29 29 30 31 31 31 31 32 32 32 32 32 33
24 24 23 23 23 23 23 22 22 22 23 23 24 24 24 23 24 25 25 25 25 25 25 25 26 26 27 27 28 29 30 31 32 31 31 31 31 32 32 32 33 33 33
25 25 25 25 25 24 25 25 25 25 25 26 26 25 25 25 26 27 27 27 26 27 27 27 28 28 29 30 30 31 31 32 32 32 31 31 31 32 32 33 34 34 34
26 26 27 27 27 27 26 27 27 27 27 27 27 27 27 27 28 28 28 27 27 28 28 29 29 30 30 31 32 32 32 32 32 31 31 31 32 32 32 33 33 34 34
28 28 27 27 28 28 28 29 29 29 28 28 28 28 28 29 29 29 28 29 29 29 30 30 30 30 31 31 31 31 31 31 31 31 31 31 32 32 32 33 33 34 33
Wind_Direction
334 336 336 332 329 327 319 306 284 262 243 229 222 215 212 217 213 210 209 211 211 212 215 210 207 212 215 213 210 213 216 220 223 225 226 231 233 245 257 270 282 285 285
330 333 337 335 331 328 323 308 289 251 232 217 218 217 216 213 212 212 213 216 215 214 216 214 215 218 217 215 218 223 225 230 234 236 238 239 242 254 261 268 274 280 282
331 331 333 334 333 331 325 317 288 240 221 215 223 219 220 218 216 217 219 219 219 218 217 219 218 221 223 221 225 228 233 237 240 244 244 247 252 260 265 269 270 273 277
332 330 331 333 331 333 328 325 296 234 210 214 230 229 221 221 223 224 225 228 228 226 227 227 225 228 230 230 232 235 238 241 245 248 249 253 257 261 267 270 270 272 275
327 328 329 331 330 333 331 327 298 243 218 219 228 224 222 225 226 226 223 233 233 230 230 230 231 233 234 234 235 239 243 246 250 253 255 257 260 261 264 268 271 271 272
324 326 327 329 329 333 336 329 303 238 216 222 222 224 225 224 225 225 226 232 234 234 232 232 234 236 239 240 242 244 246 249 253 257 260 262 264 265 266 268 271 272 274
323 324 325 326 326 325 326 328 308 275 240 234 225 228 224 225 225 228 234 236 236 237 235 238 240 241 243 244 246 248 250 253 255 259 262 263 267 269 269 270 273 274 275
320 321 322 321 320 319 317 312 299 270 252 240 233 227 227 227 233 239 243 243 241 239 240 240 242 246 247 248 251 252 253 256 259 261 264 266 268 270 270 270 272 274 276
314 317 321 323 320 316 308 304 295 275 254 247 243 236 245 246 249 249 252 254 248 246 248 248 250 251 251 254 259 259 260 261 262 263 266 269 269 270 269 270 271 274 276
312 318 322 325 323 319 311 308 290 277 271 261 249 251 257 259 262 263 258 267 259 252 251 253 255 256 258 260 261 263 265 266 269 270 272 274 274 274 273 271 272 274 277
309 312 320 322 320 314 301 301 299 278 277 265 255 257 259 260 264 272 271 272 269 261 260 260 259 259 259 260 262 265 268 270 271 274 275 277 278 277 275 275 275 276 279
302 304 313 316 314 310 305 299 297 276 267 268 264 264 266 265 268 275 278 277 274 270 267 264 261 262 263 264 263 265 269 273 275 276 278 279 279 279 278 278 277 277 280
297 295 303 308 310 307 307 301 294 285 275 271 269 270 273 274 274 275 276 275 274 273 270 267 264 265 267 267 266 268 271 274 276 276 277 279 281 281 281 280 280 280 281
293 292 294 299 304 306 304 297 294 289 282 276 273 272 275 276 275 274 271 270 270 273 273 269 267 270 270 270 269 270 272 275 277 278 279 281 282 283 283 283 284 282 283
287 287 289 293 295 299 301 294 290 290 288 282 281 282 282 279 274 273 272 272 273 276 277 275 272 273 273 272 272 273 274 276 277 280 282 282 283 283 284 285 286 286 285
281 283 287 292 293 295 297 291 289 288 287 287 286 286 286 284 279 279 279 278 276 278 279 276 277 277 276 274 275 276 276 278 280 282 283 284 283 283 284 286 286 286 285
277 281 284 287 291 290 288 285 286 287 289 290 290 291 290 288 285 283 282 281 280 279 281 280 279 279 279 278 276 277 277 278 282 283 284 284 284 284 284 285 285 285 284
273 276 279 281 286 287 283 283 282 286 288 290 291 294 292 287 284 281 282 282 280 281 282 283 283 282 281 280 280 279 279 280 282 284 285 286 287 287 286 286 286 286 286
270 272 274 276 281 284 283 282 281 282 283 285 287 288 289 288 286 286 284 283 283 284 285 285 284 284 283 280 280 280 280 283 283 284 286 288 288 286 287 288 288 287 287
265 268 272 275 279 283 283 282 279 280 282 281 281 282 283 283 285 287 286 286 285 286 286 285 285 286 286 284 282 281 281 283 285 287 288 289 289 289 289 290 289 288 288
262 265 268 272 277 281 283 283 284 283 282 282 280 280 280 281 283 286 286 287 286 285 285 284 284 284 284 284 285 286 285 285 286 287 288 289 289 289 289 289 290 290 290
260 262 265 270 274 278 282 283 285 285 283 281 280 281 280 280 283 285 286 286 286 285 283 283 283 283 284 286 287 288 288 288 289 290 289 289 289 290 291 292 291 290 290
261 262 264 268 272 275 278 281 282 284 282 280 280 281 280 281 283 284 286 286 285 285 285 285 285 285 286 287 289 290 289 290 291 291 290 291 290 291 291 292 293 294 294
261 263 265 268 271 273 275 278 279 281 282 281 281 281 281 281 282 283 284 285 284 285 285 285 285 286 288 289 290 290 290 291 291 292 293 293 292 292 292 292 293 294 295
260 262 264 266 269 272 274 277 279 280 280 279 280 280 280 280 281 282 283 283 284 285 285 285 285 286 286 288 290 291 291 290 291 292 293 294 294 294 294 294 294 296 296
261 263 265 266 268 270 272 275 276 276 277 279 279 279 280 281 281 281 281 281 283 284 285 286 285 286 288 289 290 292 292 291 292 292 293 294 295 295 295 296 296 296 295
Height
5904 5902 5899 5896 5893 5891 5889 5888 5887 5887 5887 5888 5889 5890 5892 5893 5893 5894 5895 5897 5898 5899 5900 5901 5902 5903 5904 5905 5906 5907 5907 5908 5908 5909 5909 5909 5909 5909 5909 5909 5908 5908 5908
5904 5901 5898 5895 5892 5890 5888 5885 5884 5884 5885 5887 5888 5889 5890 5891 5892 5893 5894 5896 5897 5898 5899 5900 5901 5902 5903 5904 5905 5906 5907 5907 5908 5908 5908 5908 5909 5909 5908 5908 5908 5908 5907
5903 5900 5897 5894 5891 5888 5886 5883 5882 5883 5884 5885 5887 5888 5889 5890 5891 5892 5893 5895 5896 5897 5898 5899 5900 5901 5902 5903 5904 5905 5906 5906 5906 5907 5907 5908 5908 5908 5908 5907 5907 5906 5906
5902 5899 5896 5893 5890 5888 5885 5882 5881 5882 5883 5885 5886 5887 5888 5889 5890 5891 5892 5893 5894 5895 5896 5897 5898 5900 5901 5902 5902 5903 5904 5905 5905 5905 5906 5906 5906 5906 5906 5906 5905 5905 5905
5900 5897 5895 5892 5889 5887 5884 5882 5881 5882 5883 5884 5885 5886 5887 5888 5889 5890 5891 5892 5893 5893 5894 5895 5897 5898 5899 5900 5901 5901 5902 5902 5903 5903 5904 5904 5904 5904 5904 5903 5903 5903 5902
5898 5896 5893 5891 5889 5886 5884 5881 5881 5882 5883 5884 5884 5885 5885 5886 5887 5888 5889 5890 5891 5892 5893 5894 5895 5896 5897 5898 5898 5899 5900 5900 5901 5901 5901 5901 5901 5901 5901 5901 5900 5900 5899
5897 5895 5892 5890 5888 5886 5884 5882 5882 5882 5883 5883 5883 5884 5884 5885 5886 5887 5888 5889 5889 5890 5891 5892 5893 5894 5894 5895 5896 5897 5897 5898 5898 5898 5898 5898 5898 5898 5898 5897 5897 5896 5896
5895 5893 5891 5889 5887 5885 5884 5883 5882 5882 5882 5882 5882 5883 5883 5884 5885 5886 5886 5887 5888 5888 5889 5889 5890 5891 5892 5892 5893 5893 5894 5894 5895 5895 5895 5895 5894 5894 5894 5893 5893 5892 5891
5894 5892 5890 5887 5885 5884 5883 5882 5882 5882 5881 5882 5882 5882 5882 5883 5884 5884 5884 5884 5885 5886 5886 5887 5888 5888 5889 5889 5890 5890 5891 5891 5891 5891 5891 5890 5890 5890 5889 5889 5888 5888 5887
5893 5891 5889 5887 5884 5883 5882 5882 5881 5881 5881 5881 5881 5881 5882 5882 5882 5882 5882 5882 5882 5883 5884 5884 5885 5885 5886 5886 5887 5887 5887 5887 5887 5887 5886 5886 5885 5885 5884 5883 5882 5882 5881
5891 5890 5888 5886 5884 5883 5882 5881 5880 5880 5880 5880 5880 5880 5881 5881 5881 5881 5880 5880 5880 5880 5881 5881 5882 5882 5882 5883 5883 5883 5883 5883 5883 5882 5881 5881 5880 5879 5878 5877 5877 5876 5875
5890 5889 5887 5886 5884 5883 5882 5880 5879 5879 5879 5879 5879 5879 5879 5879 5879 5879 5879 5878 5878 5878 5878 5878 5878 5879 5879 5879 5879 5879 5879 5879 5878 5877 5877 5876 5874 5873 5872 5871 5870 5869 5868
5888 5887 5886 5885 5883 5882 5881 5880 5879 5878 5877 5877 5877 5877 5877 5877 5876 5876 5876 5876 5875 5875 5875 5875 5875 5875 5875 5875 5875 5874 5874 5874 5873 5872 5871 5870 5869 5868 5866 5865 5864 5863 5861
5886 5885 5884 5883 5882 5881 5879 5878 5877 5877 5876 5876 5875 5875 5874 5874 5873 5873 5873 5873 5872 5872 5872 5871 5871 5871 5871 5870 5870 5869 5869 5869 5868 5867 5866 5865 5864 5862 5860 5859 5857 5856 5855
5884 5883 5882 5881 5880 5879 5878 5877 5876 5875 5874 5874 5873 5872 5871 5870 5870 5869 5869 5869 5869 5869 5868 5867 5867 5867 5866 5866 5865 5864 5864 5863 5863 5862 5860 5859 5857 5856 5854 5853 5851 5849 5847
5881 5881 5880 5879 5878 5877 5875 5874 5874 5873 5872 5871 5870 5869 5868 5867 5866 5866 5866 5866 5865 5865 5864 5864 5863 5862 5861 5861 5860 5859 5859 5858 5857 5856 5854 5853 5851 5849 5848 5846 5844 5842 5840
5878 5877 5877 5876 5875 5874 5873 5872 5871 5870 5869 5868 5867 5866 5865 5864 5864 5863 5863 5862 5861 5861 5860 5859 5858 5858 5857 5856 5855 5854 5853 5852 5851 5849 5848 5846 5844 5842 5840 5838 5836 5834 5832
5874 5874 5873 5873 5872 5871 5870 5869 5868 5868 5867 5866 5865 5863 5862 5862 5861 5860 5859 5858 5857 5856 5856 5855 5854 5853 5851 5850 5849 5848 5847 5845 5844 5842 5841 5839 5837 5835 5833 5831 5829 5827 5824
5870 5870 5870 5869 5868 5868 5867 5866 5865 5864 5863 5862 5861 5860 5859 5858 5857 5856 5855 5854 5853 5852 5851 5850 5849 5847 5846 5845 5843 5842 5840 5839 5837 5835 5833 5831 5830 5827 5825 5823 5821 5818 5816
5865 5865 5865 5865 5864 5864 5863 5862 5861 5860 5859 5858 5857 5856 5855 5854 5854 5852 5851 5850 5849 5847 5846 5845 5843 5842 5840 5839 5837 5836 5834 5832 5830 5828 5826 5824 5822 5820 5817 5815 5812 5810 5807
5860 5860 5860 5860 5860 5859 5858 5857 5856 5855 5854 5853 5852 5852 5850 5850 5849 5848 5846 5845 5843 5842 5840 5839 5837 5836 5834 5833 5831 5829 5827 5824 5823 5820 5818 5816 5814 5812 5809 5807 5804 5801 5799
5855 5855 5855 5855 5855 5854 5853 5853 5851 5850 5849 5848 5847 5846 5845 5844 5844 5842 5841 5839 5838 5836 5834 5832 5831 5829 5828 5826 5824 5822 5820 5818 5815 5813 5810 5808 5806 5803 5801 5798 5795 5792 5790
5848 5848 5849 5849 5849 5848 5848 5847 5846 5845 5843 5842 5841 5840 5839 5838 5837 5836 5834 5833 5831 5829 5828 5826 5824 5822 5820 5819 5817 5815 5812 5810 5808 5805 5802 5800 5797 5795 5792 5789 5786 5783 5780
5842 5842 5842 5842 5842 5842 5841 5841 5840 5839 5837 5836 5835 5834 5832 5832 5830 5829 5827 5826 5824 5822 5821 5819 5817 5815 5813 5811 5809 5806 5804 5802 5799 5796 5793 5791 5789 5786 5783 5780 5777 5774 5771
5834 5835 5835 5835 5835 5835 5835 5834 5833 5832 5831 5829 5828 5827 5826 5825 5823 5822 5820 5818 5817 5815 5813 5811 5810 5807 5805 5803 5801 5798 5796 5793 5791 5788 5785 5783 5780 5777 5774 5771 5768 5764 5761
5827 5827 5827 5827 5828 5828 5827 5827 5826 5825 5824 5822 5821 5820 5818 5817 5816 5814 5812 5810 5809 5807 5805 5803 5802 5799 5797 5795 5793 5790 5788 5785 5782 5780 5777 5774 5771 5768 5765 5762 5758 5755 5752